GFSFLT1_con_lsi_000.txt.gz
Lid_Strength_Index
10 13 14 15 13 11 11 10 10 11 8 8 8 5 5 4 3 2 1 0 -0 -1 -1 -2 -2 -2 -2 -2 -2 -2 -2 -2
11 13 12 13 12 11 11 10 10 9 9 6 4 4 4 3 3 3 1 0 -1 -1 -1 -2 -2 -2 -2 -2 -2 -2 -2 -2
13 12 14 12 11 11 11 11 10 9 9 8 5 3 4 5 4 5 2 1 0 -1 -1 -1 -2 -2 -2 -2 -2 -2 -2 -2
14 12 12 11 10 10 11 10 9 8 8 8 5 5 6 3 4 2 1 1 1 -1 -1 -2 -2 -2 -2 -2 -2 -2 -3 -3
13 12 13 11 10 11 10 11 10 7 9 8 7 7 6 6 6 5 3 2 2 2 1 0 -1 -2 -1 -1 -1 -1 -2 -2
13 14 14 10 11 11 10 10 7 6 9 10 8 7 6 6 5 6 5 5 5 3 1 2 1 -1 -2 -1 -1 -1 -1 -2
12 13 12 11 12 10 8 9 7 7 7 7 6 6 7 6 5 5 3 4 4 2 2 2 1 1 -1 -1 -2 -1 -1 -1
10 12 12 11 11 9 9 9 8 8 6 6 6 7 7 6 6 5 4 3 3 2 2 2 1 1 2 0 0 -0 -1 -0
9 10 10 11 11 9 10 9 8 9 7 7 7 7 6 6 6 5 4 2 3 3 3 2 2 2 2 1 0 -0 -0 -0
9 9 11 10 9 9 9 8 6 7 6 7 7 7 6 5 5 4 4 3 3 3 3 3 2 2 2 1 0 -0 0 -0
9 10 10 9 10 10 8 6 6 7 6 7 7 6 6 5 4 4 4 3 4 3 2 3 2 3 3 1 0 0 1 1
10 11 10 10 10 9 7 6 7 7 7 7 6 6 5 4 4 3 3 3 4 3 2 3 3 3 3 2 2 1 2 1
10 10 10 10 11 9 8 7 8 7 7 7 6 6 5 4 4 4 3 4 4 3 2 2 3 3 3 2 2 2 2 1
10 9 9 10 12 9 8 8 8 8 8 7 7 6 4 3 3 3 4 4 4 3 3 3 3 3 3 2 2 2 2 1
11 9 10 10 12 9 8 8 8 8 8 8 8 7 5 3 3 3 3 3 4 4 3 3 3 3 2 2 2 2 1 1
12 10 10 12 12 10 8 8 8 9 9 9 8 7 5 4 3 3 2 3 3 4 3 3 3 3 2 2 2 2 1 1
10 9 11 11 11 9 9 9 9 10 10 9 8 7 5 4 3 3 3 3 3 4 4 4 3 3 3 3 3 2 1 0
10 9 11 11 11 10 9 9 9 9 10 10 9 8 6 4 4 3 3 3 3 3 3 4 4 4 4 3 2 2 1 1
11 10 11 12 13 11 10 9 9 10 9 9 9 8 7 5 5 4 4 3 3 2 4 5 4 3 3 2 2 1 1 1
11 13 15 12 17 13 11 10 9 10 10 9 9 8 7 6 5 4 4 3 3 2 3 3 4 3 3 3 3 2 1 1

GFSFLT1_con_lsi_003.txt.gz
Lid_Strength_Index
7 9 10 10 9 8 7 7 7 7 5 6 6 3 2 0 -0 -1 -1 -1 -2 -1 -1 -2 -2 -2 -2 -2 -2 -2 -2 -2
8 11 9 8 6 7 7 7 6 6 7 4 2 2 1 1 0 0 -0 -1 -2 -1 -1 -1 -1 -1 -2 -2 -2 -2 -2 -2
9 10 8 8 8 7 7 7 7 6 6 5 3 2 2 1 1 1 0 -1 -1 -1 -1 -1 -1 -2 -2 -2 -2 -2 -2 -2
11 10 8 7 7 7 7 6 7 6 6 5 2 2 2 1 -0 -0 -0 -1 -1 -1 -1 -1 -2 -2 -2 -2 -2 -2 -2 -2
9 9 8 7 7 7 7 7 7 5 6 4 3 3 2 2 2 0 -1 -1 -1 -1 -1 -1 0 -0 -2 -2 -2 -2 -2 -2
9 9 9 7 7 7 7 7 5 4 6 5 3 3 2 2 2 2 1 1 -0 -0 -1 -2 -2 -2 -2 -1 -2 -2 -2 -1
9 9 7 8 8 7 6 6 6 5 5 4 4 3 3 2 2 1 0 -0 -1 -1 -1 -1 -1 -1 -1 -2 -2 -2 -1 -1
6 6 7 8 8 7 7 7 6 6 5 4 4 3 3 3 2 2 1 0 -0 -1 -1 -1 -1 -2 -2 -1 -1 -1 -2 -2
7 6 6 7 8 7 7 7 5 5 5 4 4 3 3 3 2 2 1 0 -0 -0 -0 -1 -1 -1 -1 -1 -1 -1 -1 -1
6 6 8 8 7 8 7 5 4 4 4 4 4 3 3 3 2 1 1 0 -0 -0 -1 -1 -1 -1 -1 -1 -1 -1 -1 -2
7 8 8 8 8 7 7 5 5 5 5 4 3 3 3 2 1 1 1 0 0 -0 -1 -1 -1 -1 -1 -1 -1 -1 -1 -1
8 8 8 8 8 7 5 5 5 5 5 4 4 4 3 2 2 1 1 0 0 -0 -1 -1 -0 -1 -0 -1 -1 -1 -0 -1
8 8 8 7 8 8 5 5 5 5 5 5 4 4 3 2 2 1 1 0 0 -0 -1 -1 -1 -1 -1 -1 -1 -1 -1 -2
9 8 8 7 10 5 5 6 6 6 5 5 5 4 3 2 1 1 1 1 0 -0 -0 -0 -0 -0 -0 -1 -1 -1 -1 -1
9 8 8 8 10 6 6 6 5 6 6 6 5 4 2 2 1 1 0 0 0 -0 0 -0 -1 -1 -1 -1 -1 -1 -1 -1
10 8 8 9 9 6 6 6 6 6 6 6 6 5 2 1 1 1 0 0 0 -0 -0 -0 -0 -0 -0 -1 -1 -1 -1 -1
9 7 8 8 7 7 6 6 6 6 6 6 5 3 2 2 1 1 1 0 0 0 -0 0 1 1 1 1 1 -0 -0 0
9 8 8 8 8 6 6 6 5 5 6 5 4 4 3 2 2 1 1 1 1 0 -0 0 0 0 1 0 0 0 -0 -0
9 8 7 8 9 8 6 6 6 5 5 5 4 5 3 3 2 1 1 1 1 0 -0 0 0 0 -0 -0 0 1 1 1
9 9 12 8 13 9 7 7 6 5 5 5 5 4 3 3 2 2 1 1 1 0 0 0 -0 0 1 2 2 1 1 0

GFSFLT1_con_lsi_006.txt.gz
Lid_Strength_Index
6 7 9 9 6 6 5 5 5 5 4 5 5 3 2 0 -1 -1 -1 -1 -2 -3 -1 -1 -2 -1 -2 -2 -2 -2 -2 -2
8 9 7 7 5 5 5 5 4 4 6 3 2 2 1 -0 -0 -0 -1 -1 -2 -1 -1 -1 -1 -1 -2 -2 -2 -2 -2 -2
8 8 7 5 4 5 5 5 4 5 5 4 2 0 0 -0 -0 -0 -0 -1 -2 -1 -1 -1 -1 -2 -2 -2 -2 -2 -2 -2
9 8 6 5 4 5 5 4 5 6 5 4 1 1 0 -0 -1 -1 -1 -2 -2 -1 -1 -1 -1 -1 -1 -1 -1 -2 -2 -2
8 8 7 6 4 5 5 5 5 4 5 3 2 1 -0 0 -0 -1 -1 -1 -2 -2 -2 -1 -1 -1 -1 -2 -2 -2 -2 -2
7 8 8 5 5 4 5 5 4 3 5 5 2 0 0 0 0 0 -1 -0 -1 -2 -2 -2 -2 -2 -2 -2 -2 -1 -2 -2
7 7 6 4 5 4 5 5 4 3 3 2 1 1 1 1 1 -0 -0 -1 -1 -1 -2 -2 -2 -2 -1 -2 -2 -1 -1 -1
5 5 5 4 4 4 6 5 4 5 3 3 2 1 1 1 1 1 1 -0 -1 -1 -1 -2 -1 -2 -2 -2 -1 -1 -1 -1
5 4 4 4 4 4 5 5 4 4 3 3 3 1 1 2 1 1 0 -0 -0 -1 -1 -1 -1 -1 -1 -1 -1 -1 -1 -2
5 4 5 5 4 5 5 4 3 3 2 3 2 2 2 2 1 1 0 -0 -1 -1 -1 -1 -1 -1 -1 -0 -1 -1 -2 -1
4 4 5 5 6 5 4 3 3 3 3 3 2 2 1 1 1 1 1 0 -0 -1 -1 -1 -1 -1 -1 -1 -1 -1 -1 -1
5 5 6 6 6 6 4 3 3 3 3 2 2 2 2 1 1 1 0 0 -0 -1 -1 -1 -1 -1 -1 -1 -1 -1 -1 -1
6 6 6 6 7 7 4 4 4 4 3 2 2 2 2 1 1 1 0 0 -0 -0 -1 -1 -1 -1 -1 -1 -1 -1 -1 -2
5 6 6 7 9 6 4 4 4 4 3 3 2 3 2 1 1 0 0 1 -0 -0 -1 -1 -1 -1 -1 -1 -1 -1 -1 -1
7 5 6 7 7 5 4 4 4 4 3 3 3 3 1 1 1 1 1 1 0 -0 -0 -1 -1 -1 -1 -1 -1 -1 -2 -2
8 6 7 7 7 5 4 4 4 4 4 3 3 3 1 1 1 1 1 0 -0 -0 -1 -1 -1 -1 -1 -1 -1 -1 -1 -0
7 6 7 7 7 6 4 4 4 4 4 4 3 2 1 1 1 0 1 1 0 0 -1 -0 0 1 0 1 1 -1 -1 -0
7 6 7 7 7 5 5 4 4 4 4 4 3 3 2 1 1 1 1 1 0 0 -1 -0 0 -0 0 0 -0 0 -0 -0
8 7 6 7 8 6 5 4 4 4 3 3 3 3 3 2 1 1 1 1 1 0 -0 -0 -0 -0 -0 -0 -0 0 1 0
8 8 10 7 12 8 6 5 5 4 4 4 3 3 3 2 2 1 1 0 1 0 -0 -0 -1 -0 0 1 2 1 0 -0

GFSFLT1_con_lsi_009.txt.gz
Lid_Strength_Index
6 8 10 9 6 5 4 4 4 4 3 4 4 3 2 -0 -0 -1 -1 -1 -2 -2 -1 -1 -1 -1 -1 -2 -2 -2 -2 -2
7 9 7 7 5 4 4 4 3 4 5 3 1 2 1 -0 -0 -0 -1 -1 -2 -2 -1 -1 -1 -1 -1 -1 -2 -2 -2 -2
8 8 6 5 4 4 5 4 4 4 5 4 1 0 0 -0 -0 -0 -1 -1 -1 -2 -1 -1 -1 -1 -1 -1 -1 -1 -1 -1
9 8 7 5 4 4 4 4 4 4 4 4 1 1 0 -0 -0 -1 -1 -1 -1 -2 -1 -1 -1 -1 -1 -1 -1 -1 -1 -1
8 7 7 6 4 5 4 4 4 3 5 3 2 1 0 -0 -0 -1 -1 -1 -1 -2 -3 -2 -2 -1 -1 -1 -1 -1 -1 -1
7 7 7 5 4 3 4 4 3 3 6 4 2 0 0 -0 0 -0 -1 -1 -1 -2 -1 -2 -2 -2 -1 -1 -1 -1 -1 -1
7 7 6 4 5 4 3 4 3 4 3 2 1 1 1 1 1 0 -0 -0 -1 -1 -1 -2 -2 -2 -1 -2 -1 -1 -1 -1
5 5 5 5 4 4 4 4 4 3 2 2 2 1 2 1 1 1 1 0 -1 -1 -1 -1 -1 -2 -2 -1 -1 -1 -2 -2
5 5 4 5 4 3 4 5 4 4 3 3 2 1 2 1 1 1 0 -0 -1 -1 -1 -1 -1 -1 -1 -1 -1 -1 -1 -1
5 5 4 5 4 4 4 4 3 3 3 2 2 2 2 1 1 1 1 0 -0 -1 -1 -1 -1 -1 -1 -1 -1 -1 -1 -2
5 5 4 4 5 4 4 3 3 3 3 2 2 2 1 1 1 1 1 0 -0 -1 -1 -1 -1 -0 -1 -0 -0 -1 -1 -2
4 4 4 6 5 5 4 3 4 3 3 3 3 2 1 1 1 1 1 0 -0 -0 -1 -1 -1 -1 -0 -1 -1 -1 -1 -1
5 5 5 4 6 6 4 3 4 4 3 2 2 2 2 1 1 1 0 0 0 -0 -1 -1 -0 -1 -1 -1 -1 -1 -1 -2
5 5 4 5 8 5 3 4 4 3 3 3 2 2 1 1 1 0 0 1 0 -0 -1 -1 -1 -1 -0 -1 -1 -1 -1 -1
7 5 5 6 7 5 4 4 4 4 3 3 3 2 1 1 1 0 0 1 1 -0 -0 -0 -1 -1 -1 -1 -1 -1 -1 -1
8 6 6 6 6 5 4 4 4 4 3 3 3 2 2 1 1 0 0 0 1 -0 -0 -1 -0 -0 -1 -0 -1 -1 -0 -0
7 6 6 7 6 5 4 4 4 4 3 3 3 2 1 1 1 0 0 0 1 1 -0 -0 1 1 -0 1 -0 -1 -1 -1
6 6 6 7 7 5 5 4 4 4 4 3 3 3 2 2 1 1 0 0 1 1 0 -0 0 0 0 -0 0 0 -0 -1
8 6 6 7 8 6 5 4 4 3 3 3 3 3 3 2 2 1 1 0 1 1 0 -0 -0 -1 -0 -0 -0 0 0 0
7 8 11 6 12 7 6 6 5 4 4 3 3 3 3 2 2 1 1 0 0 0 0 -0 -1 -0 1 1 2 0 1 0

GFSFLT1_con_lsi_012.txt.gz
Lid_Strength_Index
7 9 11 10 7 6 5 5 5 5 4 4 5 3 3 0 -0 -1 -1 -1 -1 -1 -1 -1 -1 -1 -1 -1 -1 -2 -2 -2
9 9 7 7 6 5 6 5 4 4 5 3 2 3 2 1 0 0 0 -1 -1 -1 -1 -1 -1 -1 -1 -1 -1 -2 -2 -2
9 8 7 6 5 5 6 5 4 4 6 5 3 2 1 1 -0 0 -2 -1 -1 -2 -1 -1 -1 -1 -1 -1 -1 -1 -1 -1
10 8 6 5 5 5 6 5 4 5 5 4 2 2 1 1 0 -0 -1 -1 -1 -2 -2 -1 -1 -1 -1 -1 -1 -1 -1 -1
8 8 7 6 4 5 5 6 5 4 6 3 2 1 0 0 0 -1 -1 -1 -1 -2 -2 -2 -2 -2 -1 -1 -1 -1 -1 -1
8 8 8 5 5 4 4 6 4 4 6 5 2 1 0 1 0 0 -0 -0 -1 -1 -2 -2 -1 -2 -2 -1 -1 -1 -1 -1
8 7 7 5 5 4 3 5 4 4 4 3 1 1 2 1 1 1 0 -0 -1 -0 -1 -2 -2 -2 -2 -2 -1 -1 -1 -1
5 5 6 5 5 5 5 5 5 4 3 3 2 2 2 2 2 2 0 0 -0 -0 -0 -1 -0 -2 -2 -1 -2 -2 -1 -1
5 4 4 5 5 4 5 6 4 5 4 3 3 2 2 2 1 2 1 0 -0 -1 -2 -1 -0 -1 -1 -1 -1 -1 -1 -1
5 4 5 6 5 5 5 5 3 3 3 3 3 2 3 2 -0 2 1 -1 -0 -1 -1 -1 -1 -0 -0 -0 -1 -0 -1 -1
4 4 4 5 5 5 5 4 3 3 3 3 2 2 2 0 0 1 -0 0 -1 -1 -1 -1 -1 -0 -0 -0 -0 -0 -0 -0
4 4 4 5 5 5 4 3 4 4 4 3 2 2 2 2 1 1 0 -1 -1 -1 -2 -1 -1 -0 -0 -0 -0 -0 -0 -0
5 5 5 4 6 6 4 4 4 4 3 3 2 2 2 2 1 0 -0 -1 -1 -0 -1 -1 -0 -0 -0 -0 -0 -0 -0 -1
6 5 5 5 8 5 4 4 4 4 3 3 3 2 2 2 2 1 -0 -1 -1 -0 -1 -1 -0 -0 -0 -1 -0 -0 -0 -1
8 5 5 6 8 5 4 4 4 4 4 3 3 2 2 1 1 1 -0 -1 -0 -1 0 -0 -0 0 -0 -0 -0 -0 -1 -0
9 6 6 7 7 5 4 4 5 4 4 4 3 3 2 2 1 1 -0 -0 -1 -1 -1 -1 0 -0 -0 -0 -0 -1 -0 -0
7 6 7 7 7 6 5 5 5 5 4 4 4 3 2 2 1 1 0 0 0 -1 -1 -0 1 1 1 1 1 -0 -0 -0
7 6 6 7 7 6 5 5 5 5 4 4 4 3 3 2 2 2 1 1 0 -0 -1 -0 0 0 0 1 0 0 -0 -0
8 7 6 7 8 7 6 5 4 4 3 3 4 4 3 3 2 2 2 1 1 -0 -1 -1 -0 0 0 1 1 1 1 1
8 9 11 7 13 9 7 6 5 4 4 4 4 4 3 3 3 2 2 1 0 0 -0 -0 -0 1 1 2 3 1 2 1

GFSFLT1_con_lsi_015.txt.gz
Lid_Strength_Index
9 12 14 12 8 7 7 7 8 8 7 6 8 5 3 2 1 0 0 0 -0 -1 -1 -1 -1 -1 -1 -1 -1 -1 -1 -2
11 12 9 9 7 6 8 7 7 7 8 5 4 4 3 1 1 2 1 -0 -1 -1 -1 -1 -1 -1 -1 -1 -1 -1 -1 -2
12 11 8 7 6 6 8 8 7 7 7 7 4 3 2 2 2 3 1 0 0 -1 -1 -2 -1 -1 -1 -1 -1 -1 -1 -1
13 10 7 7 6 6 7 7 8 7 7 7 4 4 3 2 3 2 1 0 0 -2 -2 -2 -2 -2 -1 -1 -1 -1 -1 -1
10 9 8 7 5 6 6 7 8 6 8 7 5 4 3 3 3 3 1 0 0 0 -1 -2 -2 -1 -1 -1 -2 -2 -1 -1
9 10 9 6 5 5 6 7 5 5 8 8 5 3 3 4 4 3 2 2 1 1 0 0 0 -2 -2 -2 -2 -1 -1 -1
10 9 8 7 8 6 5 6 5 5 6 4 3 3 4 5 5 4 3 4 3 2 1 1 1 -0 -2 -2 -2 -1 -1 -1
6 6 7 7 7 7 6 6 5 5 4 3 3 4 5 5 5 4 3 2 2 1 1 0 0 1 1 0 0 1 1 1
6 5 6 6 7 6 7 8 6 6 5 4 4 5 5 5 5 4 3 2 2 2 1 1 2 1 1 1 1 1 1 1
5 5 6 7 6 6 6 6 4 5 4 5 5 5 5 4 4 3 3 2 2 1 2 2 1 2 1 1 1 1 1 1
5 5 7 6 7 6 6 4 4 5 5 5 5 5 4 4 3 3 3 3 2 1 2 1 1 2 1 1 1 1 1 1
5 6 7 7 6 6 5 4 5 5 6 6 6 4 4 3 3 3 3 3 2 2 1 1 2 1 1 1 1 1 1 0
6 6 7 6 7 7 5 5 5 6 6 6 5 4 4 3 3 3 3 2 2 2 1 2 2 1 1 1 1 1 1 0
8 7 6 7 10 7 6 6 6 5 5 5 5 5 4 3 3 3 3 2 2 1 2 2 2 1 1 1 1 1 1 1
10 6 7 7 9 6 6 6 6 6 6 5 6 5 3 2 2 3 3 3 2 2 2 2 2 1 1 1 2 1 1 2
10 8 8 8 8 7 6 6 7 6 6 5 6 5 3 3 2 3 2 2 2 2 2 2 1 1 2 2 1 1 1 1
8 7 8 8 8 7 6 7 7 7 6 5 5 4 3 3 2 2 2 2 2 2 2 2 2 3 3 3 2 1 1 1
9 7 8 8 9 7 7 7 7 6 6 6 5 4 4 3 3 3 3 2 2 3 2 2 2 2 2 2 2 2 1 1
10 8 8 9 11 9 7 7 6 6 6 5 5 5 4 4 3 3 3 3 2 3 2 2 2 2 2 2 2 2 2 1
9 10 13 9 15 11 9 8 7 6 7 6 5 5 4 4 4 4 3 2 2 2 2 2 2 3 3 3 4 2 2 1

GFSFLT1_con_lsi_021.txt.gz
Lid_Strength_Index
10 13 16 14 10 8 7 6 9 10 8 9 8 5 4 3 1 2 1 -0 -0 -1 -1 -1 -1 -1 -1 -1 -1 -1 -1 -1
12 14 11 10 8 7 7 7 8 8 9 8 5 4 4 1 0 1 0 0 -1 -1 -1 -1 -1 -1 -1 -1 -1 -1 -1 -1
13 12 10 8 7 7 8 9 9 8 9 9 6 3 3 1 1 1 1 0 -0 -1 -1 -1 -1 -1 -1 -1 -1 -1 -1 -1
14 11 9 8 7 7 7 7 9 9 9 9 6 4 3 1 1 1 1 0 0 -1 -1 -1 -1 -1 -1 -1 -1 -1 -1 -1
12 11 10 8 8 8 8 7 8 7 9 8 6 4 4 4 2 1 0 0 0 0 -0 -1 -1 -1 -1 -1 -1 -1 -1 -1
11 11 10 7 7 8 8 7 6 6 8 9 6 5 5 2 2 2 1 1 1 0 1 1 1 -1 -1 -1 -1 -1 -1 -1
11 11 9 7 8 6 6 7 7 7 6 5 5 5 5 6 5 5 4 5 3 2 0 1 1 0 -1 -1 -1 -1 -1 -1
7 7 8 7 8 7 7 7 8 7 5 4 5 5 6 6 5 6 4 4 2 2 1 1 0 1 1 0 1 1 1 1
7 6 6 7 7 5 8 8 7 7 6 6 6 6 6 5 5 5 5 4 3 3 2 2 1 2 2 2 2 2 1 2
6 5 6 7 6 6 6 6 5 6 5 6 6 6 6 6 6 6 5 4 3 2 2 2 2 2 3 2 2 2 2 2
5 6 6 6 7 6 6 5 4 6 5 6 6 6 5 5 6 6 5 4 3 2 2 2 2 3 3 2 2 2 2 2
6 6 6 7 7 8 7 5 6 7 6 6 6 6 6 7 6 6 4 3 2 2 2 2 3 3 3 3 2 2 2 2
9 8 8 7 10 9 7 6 7 8 7 6 6 6 6 5 5 5 3 2 2 3 2 2 2 3 3 2 2 2 2 2
10 8 8 8 12 8 6 7 7 7 7 6 6 6 5 6 5 5 3 3 3 1 3 3 3 3 2 2 2 2 2 2
12 8 9 10 11 8 7 7 8 7 7 8 7 7 6 5 5 4 3 3 3 3 3 3 3 3 3 2 2 2 2 2
13 10 10 11 11 9 7 8 7 7 8 7 7 7 6 5 5 3 3 3 3 3 3 3 3 3 3 3 3 2 2 2
11 8 11 12 11 9 8 8 8 8 8 8 8 7 5 5 4 3 3 3 4 3 3 3 3 4 4 4 3 3 2 2
10 8 11 12 11 9 9 8 8 8 8 8 7 6 5 5 4 3 3 4 3 3 3 3 4 4 3 3 3 3 3 2
11 9 10 11 12 10 8 8 8 7 8 7 7 6 6 5 4 4 4 3 4 3 3 3 3 3 3 3 3 3 3 2
10 13 16 11 16 12 10 9 9 8 9 8 6 5 5 5 5 4 4 3 4 3 3 3 3 4 4 4 5 4 3 3

GFSFLT1_con_lsi_024.txt.gz
Lid_Strength_Index
10 13 16 14 10 9 7 6 9 11 9 9 9 6 5 2 1 2 1 0 -0 -1 -1 -1 -2 -2 -2 -2 -2 -2 -2 -2
12 14 11 11 9 8 8 7 9 9 9 8 6 5 4 2 1 1 0 -0 -1 -1 -1 -1 -1 -1 -1 -1 -2 -2 -1 -2
13 13 10 8 7 8 8 8 10 9 9 9 7 4 4 1 1 2 1 0 -0 -1 -1 -1 -1 -1 -1 -1 -1 -1 -1 -1
14 12 9 8 7 8 8 8 9 9 9 8 6 5 3 1 1 2 2 0 0 -1 -1 -1 -1 -1 -1 -1 -1 -1 -1 -1
12 11 10 8 7 9 9 9 8 8 9 8 7 5 2 1 1 1 0 0 0 0 -0 -1 -1 -1 -1 -1 -1 -1 -1 -1
11 11 11 7 8 8 8 8 6 6 9 9 7 5 4 3 3 1 1 0 0 0 0 0 0 -1 -1 -1 -1 -1 -1 -1
11 11 9 8 9 7 6 7 8 7 7 6 6 6 4 5 4 3 2 1 0 0 0 0 1 0 -1 -1 -1 -1 -1 -1
8 8 8 8 8 7 7 7 7 7 6 5 6 6 5 5 4 5 3 4 3 2 2 1 0 1 1 1 1 1 1 0
7 6 7 7 7 6 7 8 6 7 5 6 6 6 6 4 4 3 3 3 4 3 3 2 2 2 1 1 1 1 1 1
6 6 7 7 6 7 6 6 5 5 5 6 7 6 6 5 5 6 5 4 4 4 3 3 2 1 1 2 2 2 1 1
6 6 6 5 7 7 6 4 4 5 6 6 7 6 5 5 5 6 6 5 4 3 3 2 2 2 2 2 2 2 2 1
8 7 6 7 7 7 6 4 6 6 7 7 7 6 6 6 6 7 6 5 4 3 3 2 2 2 2 2 2 2 2 2
10 9 9 7 11 9 7 6 7 7 7 7 6 6 6 6 5 6 5 4 3 3 2 2 2 2 2 2 2 2 2 2
11 9 9 9 13 9 7 8 8 8 7 7 7 6 6 5 6 6 4 3 3 1 2 2 3 2 2 2 2 2 2 2
14 10 10 10 12 9 8 8 8 8 7 7 7 7 5 6 6 4 3 3 3 2 2 3 3 3 2 2 2 2 2 2
14 11 12 12 11 10 9 9 9 8 8 8 7 7 7 6 5 4 3 3 3 3 3 3 3 3 2 3 2 2 2 1
12 10 11 12 11 10 9 9 9 9 8 8 8 7 7 6 4 4 3 3 3 3 3 3 3 3 3 3 3 2 2 1
11 10 11 11 12 10 10 9 9 9 8 8 8 7 6 6 5 4 3 3 3 3 3 3 3 3 3 3 2 2 2 2
13 11 11 12 13 12 10 9 9 8 8 8 8 7 7 6 5 4 4 4 3 3 3 3 3 3 3 3 3 3 2 2
11 13 16 11 17 13 11 10 9 9 9 9 7 6 6 5 5 4 4 3 3 3 3 3 3 3 3 3 3 3 2 2

GFSFLT1_con_lsi_027.txt.gz
Lid_Strength_Index
7 10 12 11 8 7 6 5 5 7 7 7 6 4 3 1 -0 -0 -0 -1 -1 -1 -1 -2 -2 -2 -1 -2 -2 -2 -2 -2
9 11 9 9 7 6 6 5 6 6 7 5 4 3 2 0 -0 -0 -0 -1 -1 -1 -1 -1 -2 -1 -1 -2 -2 -2 -2 -2
11 11 8 7 6 5 6 5 5 6 6 5 4 2 1 0 -0 0 -0 -1 -1 -1 -1 -1 -1 -1 -1 -1 -2 -2 -2 -2
12 10 8 6 5 5 5 5 5 6 6 4 3 2 1 0 0 -0 -0 -1 -1 -1 -1 -1 -1 -1 -1 -1 -1 -1 -1 -2
10 10 8 7 5 6 6 6 5 5 6 4 3 2 0 0 -0 -0 -0 -0 -1 -1 -1 -1 -1 -1 -1 -1 -1 -1 -1 -1
9 9 8 6 5 5 5 6 5 5 6 5 3 2 0 0 0 0 -0 -0 -0 -1 -1 -1 -1 -1 -1 -1 -1 -1 -1 -1
9 9 7 5 6 5 4 4 4 4 4 3 3 3 1 1 1 1 1 0 -0 -0 -1 -1 -1 -1 -1 -1 -1 -1 -1 -1
6 6 6 6 6 5 5 5 5 4 3 3 3 3 3 2 2 2 1 1 -0 -0 -0 -1 -1 -1 -1 -1 -1 -1 -1 -2
6 5 5 6 6 4 6 6 5 5 4 3 2 3 3 2 2 2 1 1 0 -0 -1 -0 -0 -1 -1 -1 -1 -1 -1 -1
5 5 5 6 5 6 5 5 3 3 3 3 3 3 3 3 2 2 1 1 0 -0 -0 -0 -0 -0 -1 -0 -1 -1 -1 -2
5 5 5 5 6 6 5 4 3 3 3 3 3 3 2 2 1 1 1 1 0 -0 -0 -0 -0 -1 -1 -0 -0 -1 -1 -1
5 5 5 6 7 6 6 4 4 4 4 3 3 3 2 2 2 2 1 1 0 0 -0 -0 -0 -1 -0 -1 -1 -1 -1 -1
8 7 8 7 9 9 6 5 5 5 4 4 3 3 3 2 2 1 1 1 1 0 -0 -0 -0 -0 -1 -1 -1 -0 -1 -1
8 8 8 8 11 7 6 6 6 5 5 5 4 3 2 2 1 1 1 1 0 0 0 -0 -0 -0 -0 -0 -1 -0 -1 -1
11 9 9 9 10 8 6 6 6 5 5 5 4 3 2 2 1 2 1 1 1 0 0 0 -0 -0 -1 -1 -0 -1 -1 -1
12 10 10 10 10 8 6 6 6 5 5 5 4 3 2 2 2 1 1 1 1 1 0 -0 -0 -0 -0 -0 -0 -1 -0 -0
10 9 10 9 9 8 6 6 6 6 6 5 4 3 4 3 2 1 1 1 1 1 0 1 1 1 1 1 1 0 -0 -1
10 9 9 9 10 8 6 6 6 6 6 5 4 3 4 3 2 2 2 1 1 1 1 0 1 0 -0 0 0 -0 -0 -1
12 10 9 10 11 9 7 6 6 6 5 4 4 4 4 3 3 2 2 2 1 1 1 0 0 0 0 -0 0 0 0 -0
12 12 13 10 14 10 8 8 7 6 5 4 4 4 4 4 3 3 2 1 1 1 1 0 -0 1 1 1 2 1 0 -0

GFSFLT1_con_lsi_030.txt.gz
Lid_Strength_Index
6 8 10 9 7 6 5 4 4 5 4 4 4 3 2 0 -0 -1 -1 -1 -2 -1 -1 -2 -2 -1 -2 -2 -2 -2 -2 -2
8 9 7 7 6 5 5 4 4 4 5 4 2 2 1 -0 -0 -0 -1 -1 -2 -1 -1 -1 -2 -1 -1 -2 -2 -2 -2 -2
8 8 7 6 5 4 5 5 4 4 5 4 2 1 0 0 -0 -0 -1 -1 -1 -1 -1 -1 -1 -1 -1 -1 -1 -2 -2 -2
9 8 6 5 4 4 4 4 4 4 4 4 1 1 0 -0 -0 -1 -1 -1 -2 -1 -1 -1 -1 -1 -1 -1 -1 -1 -2 -2
7 7 7 5 3 4 5 5 5 3 5 3 2 1 0 -0 -1 -1 -1 -1 -1 -1 -1 -1 -1 -1 -1 -1 -1 -1 -1 -1
7 8 7 5 4 4 4 5 3 3 5 4 2 0 0 0 -0 -0 -0 -1 -1 -1 -1 -2 -1 -1 -1 -1 -1 -1 -1 -1
7 7 6 4 5 4 3 4 3 3 3 2 1 0 1 1 1 0 0 -0 -1 -1 -1 -1 -1 -1 -1 -1 -1 -1 -1 -1
5 5 5 4 4 4 5 4 4 3 2 1 1 1 2 2 1 1 1 0 -0 -1 -1 -1 -1 -2 -2 -2 -2 -2 -2 -2
5 4 4 5 5 3 5 6 4 4 3 2 2 1 2 2 1 1 0 0 -0 -1 -1 -1 -1 -1 -1 -1 -1 -2 -2 -2
4 4 4 5 4 5 4 4 3 2 2 2 2 2 2 1 1 1 1 0 -0 -1 -1 -1 -1 -1 -1 -1 -1 -1 -1 -2
4 4 4 4 5 5 5 3 2 2 3 3 3 2 1 1 1 1 1 0 -0 -1 -0 -1 -1 -1 -1 -1 -1 -1 -1 -2
4 4 4 5 5 4 4 3 4 4 3 3 3 2 2 1 1 1 0 0 -0 -0 -1 -1 -0 -1 -1 -1 -1 -1 -1 -2
5 5 5 5 6 6 4 4 4 4 3 3 3 2 2 1 1 1 0 -0 -0 -0 -0 -0 -0 -1 -1 -1 -1 -1 -1 -2
6 5 6 6 9 6 4 5 4 4 4 3 3 2 2 1 1 0 0 0 -0 -0 -0 -0 -0 -1 -1 -1 -1 -1 -1 -1
7 5 6 7 8 5 4 5 5 4 3 3 3 2 1 1 1 0 0 0 0 -0 0 -0 -1 -1 -1 -1 -1 -1 -1 -1
9 6 7 8 8 5 5 5 4 4 4 4 3 3 1 1 1 0 0 0 0 -0 -0 -0 -0 -1 -0 -0 -1 -1 -1 -1
7 6 7 7 7 6 5 5 4 4 4 4 3 2 1 1 1 1 0 0 0 0 0 0 1 1 1 1 0 -0 -1 -1
7 6 7 8 8 6 5 5 4 4 4 3 3 2 2 2 2 1 1 1 1 1 0 0 0 -0 -0 0 -0 -1 -1 -1
9 7 6 7 9 7 5 4 4 4 4 4 4 3 3 3 2 2 2 1 1 1 0 -0 -1 -0 0 -0 -0 0 0 0
9 9 12 8 13 9 7 6 5 4 4 4 3 3 3 3 2 2 2 1 1 0 0 0 -0 -0 0 1 1 -0 0 -1

GFSFLT1_con_lsi_033.txt.gz
Lid_Strength_Index
6 8 9 10 7 6 5 4 4 4 3 4 4 2 2 0 -0 -1 -1 -1 -2 -1 -1 -1 -1 -1 -1 -2 -2 -2 -2 -2
8 9 7 6 5 5 5 4 3 3 5 3 1 2 1 -0 -0 -0 -0 -1 -1 -1 -1 -1 -1 -1 -1 -2 -2 -2 -2 -2
7 7 6 5 4 4 5 4 4 4 5 4 1 0 0 0 -0 -0 -0 -1 -1 -1 -1 -1 -1 -1 -1 -1 -1 -2 -2 -2
9 7 5 5 4 4 4 4 4 4 4 3 1 1 0 -0 -0 -0 -0 -1 -1 -1 -1 -1 -1 -1 -1 -1 -1 -1 -1 -2
7 7 7 5 3 4 4 4 4 3 5 3 2 1 0 -0 -0 -0 -1 -1 -1 -1 -1 -1 -1 -1 -1 -1 -1 -1 -1 -1
7 8 7 4 4 3 4 4 2 2 5 4 2 1 0 -0 -0 -0 -0 -0 -1 -1 -1 -1 -1 -1 -1 -1 -1 -1 -1 -1
8 7 6 4 5 3 3 4 3 2 3 2 1 0 1 1 0 0 0 -0 -1 -0 -1 -1 -1 -1 -1 -1 -1 -1 -1 -1
5 5 6 4 5 4 4 4 4 3 2 1 1 1 1 1 1 1 1 0 -0 -1 -1 -1 -1 -2 -1 -1 -1 -1 -2 -2
5 4 4 4 4 3 4 5 4 4 3 2 2 1 1 1 1 1 0 0 -0 -1 -1 -1 -0 -1 -0 -1 -1 -1 -2 -2
4 4 4 5 4 4 4 4 3 2 2 2 2 2 2 1 1 1 1 0 -0 -0 -0 -1 -1 -0 -1 -0 -0 -1 -1 -2
4 4 4 4 5 5 4 3 2 2 2 2 3 2 1 1 1 0 1 0 -0 -0 -0 -0 -0 -0 -0 -0 -1 -1 -1 -2
4 4 4 5 5 4 4 3 3 3 3 3 3 2 1 1 1 1 0 0 -0 -0 -0 -0 -0 -0 -0 -1 -1 -1 -1 -1
5 4 5 4 6 6 3 3 3 3 3 3 2 2 2 1 1 0 1 -0 -0 -0 -0 -0 -0 -0 -0 -1 -1 -1 -1 -2
6 5 4 5 9 5 3 3 4 4 3 3 2 2 1 1 0 0 0 0 -0 0 -0 -0 -0 -0 -0 -1 -0 -1 -1 -1
8 5 5 6 8 5 3 4 4 4 3 3 3 2 1 1 1 0 0 -0 0 -0 0 0 -0 -0 -0 -1 -1 -1 -1 -1
9 6 6 7 7 5 4 4 4 4 3 3 3 2 1 1 0 0 0 -0 -0 0 -0 0 0 -0 -0 -0 -0 -1 -1 -1
7 6 7 7 7 6 4 4 4 4 4 3 3 2 1 1 1 1 1 0 0 0 0 0 1 1 1 1 0 -0 -0 -1
7 6 7 7 7 6 5 5 4 4 4 3 3 2 2 2 2 1 1 1 1 0 1 0 0 0 0 0 0 -0 -0 -1
8 7 6 7 8 7 5 4 4 4 3 3 3 3 2 2 2 2 2 1 1 1 1 0 -0 -0 -0 -0 -0 1 0 0
8 8 11 7 12 8 6 6 5 4 4 3 3 2 2 3 2 2 2 1 1 1 1 0 -0 -0 0 1 2 1 0 -0

GFSFLT1_con_lsi_036.txt.gz
Lid_Strength_Index
7 9 11 10 7 7 5 4 5 5 3 4 4 2 2 1 -0 0 0 -0 -1 -1 -1 -1 -1 -1 -1 -1 -2 -2 -2 -2
9 10 8 7 6 6 6 4 4 4 5 3 2 2 1 0 0 0 0 -0 -1 -1 -1 -1 -1 -1 -1 -1 -2 -2 -2 -2
9 8 6 6 5 5 5 5 4 4 5 4 2 1 0 0 0 0 0 -0 -0 -1 -1 -1 -1 -1 -1 -1 -1 -1 -2 -2
10 8 6 5 4 4 5 4 4 4 5 4 1 1 1 0 0 -0 0 -0 -0 -1 -1 -1 -1 -1 -1 -1 -1 -1 -1 -2
8 8 7 6 4 5 5 5 5 4 5 3 2 1 0 -1 -0 -0 -0 -0 0 -0 -1 -1 -1 -1 -1 -1 -1 -1 -1 -1
8 8 8 5 5 4 4 5 3 3 5 5 2 1 1 0 0 0 0 0 0 -0 -0 -0 -0 -1 -1 -1 -1 -1 -1 -1
9 8 7 5 5 4 3 4 4 3 3 2 1 1 1 1 1 1 1 0 0 0 0 -0 -0 -1 -1 -1 -1 -1 -1 -1
6 6 6 5 5 5 5 5 5 4 2 2 1 2 2 2 2 1 1 1 0 0 0 0 -0 -0 -0 -0 -0 -1 -1 -1
5 5 4 5 5 4 5 6 4 4 3 2 2 2 2 2 2 2 1 1 0 0 0 0 0 0 -0 -0 -0 -0 -0 -1
5 4 5 5 4 5 5 5 3 3 3 2 2 2 2 2 2 2 1 1 0 0 0 0 0 0 0 0 0 0 -0 -0
4 4 4 4 5 5 5 3 3 3 3 3 3 2 2 2 1 1 1 0 0 0 1 0 0 0 0 0 0 0 -0 -0
5 5 5 5 5 5 4 3 3 3 3 3 3 2 2 2 2 1 1 0 0 1 1 0 1 0 0 0 0 -0 -0 -0
5 5 5 4 7 6 4 3 4 4 3 3 3 2 2 1 1 0 1 -0 0 1 1 1 1 0 0 0 -0 0 -0 -1
6 5 5 5 9 5 4 4 4 4 3 3 3 2 1 1 0 0 1 1 0 0 1 1 1 0 0 -0 -0 -0 -0 -0
8 5 6 6 8 5 4 4 5 4 4 3 3 2 1 2 1 1 1 1 1 0 1 1 1 0 0 -0 0 -0 -0 -0
9 7 6 7 7 6 5 5 5 4 4 4 3 3 2 2 1 -0 0 -0 -0 1 1 1 1 0 0 0 0 -0 -0 -0
8 6 7 8 7 6 5 5 5 5 4 4 4 2 2 2 -0 1 0 1 1 1 1 1 1 2 2 2 1 1 0 -0
7 6 7 7 8 6 5 5 5 5 5 4 4 3 2 2 2 2 2 2 1 1 1 1 1 1 1 1 1 1 0 0
9 7 6 7 9 8 6 5 5 4 4 4 4 4 3 2 3 2 2 2 2 1 1 1 1 1 1 1 0 1 1 1
8 9 11 7 13 9 7 7 6 5 4 4 4 3 3 3 3 3 2 2 2 1 1 1 1 1 1 2 3 1 1 1

GFSFLT1_con_lsi_042.txt.gz
Lid_Strength_Index
9 11 13 13 9 8 6 5 5 6 5 6 6 3 3 2 1 0 0 0 0 -1 -1 -1 -1 -1 -2 -2 -2 -2 -2 -2
11 12 10 9 8 7 6 5 5 5 7 6 3 3 2 1 1 1 0 0 -1 -1 -1 -1 -1 -1 -2 -2 -2 -2 -2 -2
12 10 8 8 6 6 7 6 6 5 6 6 3 2 1 1 1 1 1 0 -0 -1 -1 -1 -1 -1 -1 -1 -1 -2 -2 -2
13 10 8 8 7 6 6 6 6 6 6 6 4 2 2 1 1 0 1 0 0 -1 -1 -1 -1 -1 -1 -1 -1 -1 -1 -2
11 10 9 8 7 7 6 6 7 6 7 6 4 3 2 1 1 1 0 0 0 0 -0 -1 -1 -1 -1 -1 -1 -1 -1 -1
11 11 10 8 7 7 7 6 5 5 7 7 4 3 3 3 2 1 1 0 0 0 0 0 -0 -1 -1 -1 -1 -1 -1 -1
12 10 9 7 7 6 5 6 5 5 5 4 2 2 4 5 4 5 2 1 1 0 0 0 0 -0 -1 -1 -1 -1 -1 -1
9 8 9 7 8 7 6 6 6 5 4 3 3 4 4 5 5 5 2 2 1 1 0 0 -0 0 -0 -0 -0 -0 -0 -0
7 6 7 7 7 6 7 8 6 6 5 4 4 5 5 5 5 6 6 2 1 1 0 0 0 0 0 -0 0 -0 0 0
6 5 6 7 6 7 7 6 5 5 4 5 5 5 5 5 5 6 6 2 1 1 1 1 0 0 0 0 0 0 -0 0
7 7 6 5 6 7 6 4 4 5 5 5 5 5 5 5 5 5 6 5 1 1 1 1 1 0 0 0 0 0 0 0
7 8 7 8 7 6 6 5 5 5 6 6 6 6 5 5 5 5 5 4 4 1 1 1 1 1 1 0 0 0 0 0
9 9 9 7 9 9 6 5 6 5 5 5 5 5 5 4 4 5 4 4 5 1 1 1 1 1 1 1 0 1 0 0
10 9 8 8 12 7 6 6 6 6 5 4 5 4 4 4 5 4 5 4 4 1 1 2 1 2 1 1 1 1 1 1
11 8 8 8 11 8 6 6 6 6 6 5 5 5 5 4 5 5 4 4 3 2 2 2 2 1 1 2 1 3 2 1
11 9 8 9 10 8 7 6 6 6 5 5 5 5 4 5 4 4 4 4 2 2 2 2 1 2 2 3 4 4 3 2
9 7 8 9 10 8 7 7 7 7 6 6 6 5 4 5 5 3 3 3 2 2 2 2 2 3 4 5 4 4 3 2
11 9 9 9 9 8 7 7 6 6 6 6 7 6 5 5 3 3 3 3 3 3 3 2 3 3 4 4 4 4 3 3
13 11 10 11 12 11 8 8 7 7 6 6 6 6 6 5 4 4 3 3 3 3 3 3 3 3 4 4 4 4 4 3
12 13 16 11 16 12 10 9 8 8 7 8 6 5 5 6 5 4 4 3 3 3 3 3 4 4 4 5 5 4 3 3

GFSFLT1_con_lsi_045.txt.gz
Lid_Strength_Index
9 11 14 14 10 8 7 5 6 6 6 6 6 3 3 2 1 2 1 0 0 -1 -1 -1 -1 -1 -1 -2 -2 -2 -2 -2
11 12 10 11 9 8 8 6 5 6 7 6 3 3 3 1 1 2 1 0 -0 -1 -1 -1 -1 -1 -1 -1 -2 -2 -2 -2
12 11 9 8 7 8 7 6 6 6 7 7 4 2 1 1 1 2 1 0 -0 -1 -1 -1 -1 -1 -1 -1 -1 -2 -2 -2
13 11 8 9 8 8 7 6 6 6 7 6 4 2 2 1 2 2 1 0 0 -1 -1 -1 -1 -1 -1 -1 -1 -1 -1 -2
12 11 9 9 8 9 8 7 6 6 7 7 5 3 2 1 1 2 1 1 0 0 -0 -1 -1 -1 -1 -1 -1 -1 -1 -1
12 11 10 8 8 8 7 7 5 5 8 8 5 4 2 2 2 2 1 2 1 0 0 0 0 -1 -1 -1 -1 -1 -1 -1
12 10 9 9 10 7 6 6 6 6 6 5 4 4 4 6 6 3 1 1 2 0 0 0 0 -0 -1 -1 -1 -1 -1 -1
8 8 9 7 8 8 7 7 7 6 5 4 4 4 5 6 6 5 3 2 1 1 1 0 0 0 0 0 0 -0 -0 0
7 6 6 7 7 6 8 9 7 7 6 5 5 5 5 5 5 5 3 2 1 1 0 1 1 0 0 0 0 0 0 0
6 6 6 7 6 6 6 7 5 5 5 5 6 5 6 6 5 6 7 3 1 1 1 1 0 0 0 0 0 0 0 0
6 6 6 6 7 7 7 5 5 4 5 6 6 6 6 6 6 6 7 6 1 1 1 1 1 1 1 1 0 0 0 0
8 8 8 8 8 8 7 5 5 6 6 6 6 6 6 6 6 6 5 6 3 1 1 1 1 1 1 0 0 0 0 0
10 10 10 8 10 10 7 6 6 6 6 6 6 6 6 6 5 5 5 5 5 1 1 1 1 1 1 1 1 1 0 0
10 10 9 9 13 8 6 6 7 6 6 6 6 6 5 5 5 4 5 5 5 1 1 1 1 1 1 1 1 1 1 1
12 9 9 9 11 8 6 7 7 7 7 6 6 6 6 5 4 5 5 5 5 4 2 1 2 2 1 1 1 1 1 1
13 10 9 10 11 9 7 7 8 7 7 7 6 6 5 4 4 5 5 5 5 3 2 2 3 3 2 2 3 2 2 1
10 8 9 11 10 9 8 8 8 8 8 7 6 5 5 5 4 5 5 5 5 2 2 2 2 2 3 3 4 4 3 2
11 9 11 11 11 9 8 8 7 8 8 6 6 6 5 5 6 4 4 3 3 2 2 2 2 4 4 4 5 4 4 3
13 11 10 12 12 11 10 9 8 7 7 7 7 7 6 6 5 4 3 3 3 2 3 3 3 4 5 5 5 5 5 4
12 14 16 12 17 13 11 11 10 9 8 9 8 7 7 6 6 4 3 3 3 3 3 3 3 4 4 5 6 5 5 4